This is the latest recevied weather packets stored in our database for station/object SQ5LTL-2. If no packets are shown the sender has not sent any weather packets the latest 10 day(s).
| Time | Temp. | Humidity | Pressure | Rain* | Wind** | Luminosity | Snow |
|---|---|---|---|---|---|---|---|
| 1777620330 | 12.78° C | 46% | 1027.3 hPa | 0 mm | - | 264 W/m² | - |
| 1777620028 | 12.22° C | 45% | 1027.2 hPa | 0 mm | - | 268 W/m² | - |
| 1777619727 | 12.22° C | 46% | 1027.2 hPa | 0 mm | - | 237 W/m² | - |
| 1777619425 | 12.22° C | 45% | 1027.2 hPa | 0 mm | - | 229 W/m² | - |
| 1777619124 | 12.22° C | 46% | 1027.2 hPa | 0 mm | - | 219 W/m² | - |
| 1777618823 | 11.67° C | 47% | 1027.2 hPa | 0 mm | - | 221 W/m² | - |
| 1777618521 | 11.67° C | 47% | 1027.2 hPa | 0 mm | - | 212 W/m² | - |
| 1777617919 | 11.11° C | 49% | 1027.3 hPa | 0 mm | - | 199 W/m² | - |
| 1777617616 | 11.11° C | 50% | 1027.2 hPa | 0 mm | - | 192 W/m² | - |
| 1777617336 | 11.11° C | 50% | 1027.3 hPa | 0 mm | - | 178 W/m² | - |
| 1777617034 | 11.11° C | 49% | 1027.2 hPa | 0 mm | - | 159 W/m² | - |
| 1777616732 | 10.56° C | 51% | 1027.3 hPa | 0 mm | - | 155 W/m² | - |
| 1777616431 | 10.56° C | 51% | 1027.3 hPa | 0 mm | - | 146 W/m² | - |
| 1777616129 | 10.56° C | 51% | 1027.3 hPa | 0 mm | - | 139 W/m² | - |
| 1777615828 | 10.56° C | 51% | 1027.3 hPa | 0 mm | - | 147 W/m² | - |
| 1777615526 | 10.56° C | 51% | 1027.1 hPa | 0 mm | - | 157 W/m² | - |
| 1777615225 | 10° C | 52% | 1027.2 hPa | 0 mm | - | 151 W/m² | - |
| 1777614923 | 10° C | 53% | 1027.2 hPa | 0 mm | - | 138 W/m² | - |
| 1777614623 | 10° C | 53% | 1027.2 hPa | 0 mm | - | 133 W/m² | - |
| 1777614321 | 9.44° C | 53% | 1027.1 hPa | 0 mm | - | 133 W/m² | - |
| 1777614019 | 9.44° C | 54% | 1027.1 hPa | 0 mm | - | 136 W/m² | - |
| 1777613717 | 9.44° C | 54% | 1027.1 hPa | 0 mm | - | 128 W/m² | - |
| 1777613416 | 8.89° C | 54% | 1027.2 hPa | 0 mm | - | 120 W/m² | - |
| 1777613134 | 8.89° C | 54% | 1027.3 hPa | 0 mm | - | 109 W/m² | - |
| 1777612833 | 8.89° C | 55% | 1027.3 hPa | 0 mm | - | 105 W/m² | - |
* Rain latest hour (hover to see other rain measurements)
** Current wind speed in m/s (hover to see current wind gust speed)